sat.trackr.live / text

‹ back to catalog

STARLINK-36897

NORAD 67951 · 2026-037V

PAYLOAD ACTIVE UNKNOWN

§ Identity

Operator
Country
US
Launch date
2026-02-24
Launch site
AFETR
Launch vehicle
Mass (kg)
RCS (m²)

Purposes: comms

External: N2YO · Heavens-Above · Gunter

§ Orbital elements

Epoch: 2026-09-19T11:23:27.831552Z

Period
94.27 min
Inclination
43.0018°
Eccentricity
0.0001155
Mean motion
15.27588589 rev/d
Perigee alt
482.2 km
Apogee alt
483.8 km
Semi-major
6,861.2 km
B*
3.2635e-4
RAAN
176.6631°
Arg perigee
268.2796°
Mean anomaly
91.7924°
Rev number
3,297

§ Raw data

STARLINK-368971 67951U 26037V   26262.47462768  .00008731  00000+0  32635-3 0  99982 67951  43.0018 176.6631 0001155 268.2796  91.7924 15.27588589 32979

JSON: /api/v1/satellites/67951 · /tle

For live sub-satellite position, see the globe view (requires WebGL).

§ Visibility from observer

Set your observer location to see the next 7 days of passes ≥ 10°. The values pass through the URL so the page stays shareable.

No JS? Fill the form by hand. The geolocation button needs JavaScript.